Change the Weather History Date:

Tuesday, February 26, 2013

  Actual Average (KEYE) Record (KEYE)
Temperature  
Mean Temperature 36 °F 35 °F  
Max Temperature 40 °F 44 °F 66 °F (1998)
Min Temperature 32 °F 27 °F 5 °F (2014)
Degree Days  
Heating Degree Days 29 30  
Month to date heating degree days 866  
Since 1 July heating degree days 4067  
Cooling Degree Days 0 0  
Month to date cooling degree days 0  
Year to date cooling degree days 0  
Moisture  
Dew Point 31 °F    
Average Humidity 84    
Maximum Humidity 90    
Minimum Humidity 67    
Precipitation  
Precipitation 0.83 in 0.07 in 1.99 in (1997)
Month to date precipitation 1.95  
Year to date precipitation 4.16  
Sea Level Pressure  
Sea Level Pressure 29.55 in    
Wind  
Wind Speed 10 mph (ENE)    
Max Wind Speed 16 mph    
Max Gust Speed 28 mph    
Visibility 5 miles    
Events Rain , Snow    
T = Trace of Precipitation, MM = Missing Value Source: NWS Daily Summary

Daily Weather History Graph

Daily Weather History Graph

Search for Another Location

Airport or City:

Trip Planner

Search our weather history database for the weather conditions in past years. The results will help you decide how hot, cold, wet, or windy it might be!

Date:

Astronomy

Feb. 26, 2013 Rise Set
Actual Time 7:22 AM EST 6:33 PM EST
Civil Twilight 6:55 AM EST 7:01 PM EST
Nautical Twilight 6:23 AM EST 7:32 PM EST
Astronomical Twilight 5:52 AM EST 8:03 PM EST
Moon 7:49 PM EST (2/26) 7:24 AM EST (2/26)
Length of Visible Light 12h 05m
Length of Day
11h 11m
Full, 99% of the Moon is Illuminated
Feb 26
Full
Mar 4
Last Quarter
Mar 11
New
Mar 19
First Quarter
Mar 27
Full

Hourly Weather History & Observations

Time (EST) Temp. Windchill Dew Point Humidity Pressure Visibility Wind Dir Wind Speed Gust Speed Precip Events Conditions
12:15 AM 34.7 °F 26.9 °F 25.9 °F 70% 29.87 in 10.0 mi East 10.4 mph 16.1 mph N/A   Clear
12:35 AM 34.7 °F 25.9 °F 25.7 °F 70% 29.88 in 10.0 mi East 12.7 mph - N/A   Clear
12:55 AM 34.7 °F 26.4 °F 25.7 °F 70% 29.88 in 10.0 mi East 11.5 mph - N/A   Scattered Clouds
1:15 AM 34.7 °F 25.9 °F 25.7 °F 70% 29.86 in 10.0 mi East 12.7 mph 17.3 mph N/A   Mostly Cloudy
1:35 AM 34.5 °F 25.3 °F 25.7 °F 70% 29.83 in 10.0 mi ENE 13.8 mph 18.4 mph N/A   Mostly Cloudy
1:55 AM 34.7 °F 25.9 °F 25.7 °F 70% 29.83 in 10.0 mi ENE 12.7 mph 18.4 mph N/A   Mostly Cloudy
2:15 AM 34.7 °F 25.9 °F 25.3 °F 69% 29.81 in 10.0 mi ENE 12.7 mph 20.7 mph N/A   Mostly Cloudy
2:35 AM 34.7 °F 25.5 °F 25.5 °F 69% 29.78 in 10.0 mi ENE 13.8 mph 24.2 mph N/A   Overcast
2:55 AM 34.3 °F 24.2 °F 25.5 °F 70% 29.77 in 10.0 mi ENE 16.1 mph 21.9 mph N/A   Scattered Clouds
3:15 AM 34.3 °F 24.6 °F 25.3 °F 70% 29.76 in 10.0 mi ENE 15.0 mph 21.9 mph N/A   Mostly Cloudy
3:35 AM 34.2 °F 25.7 °F 25.3 °F 70% 29.75 in 10.0 mi ENE 11.5 mph 20.7 mph N/A   Overcast
4:15 AM 34.7 °F 24.7 °F 24.8 °F 67% 29.72 in 10.0 mi ENE 16.1 mph 24.2 mph N/A   Overcast
4:35 AM 34.7 °F 24.7 °F 24.6 °F 67% 29.70 in 10.0 mi ENE 16.1 mph 26.5 mph N/A   Overcast
4:55 AM 34.3 °F 24.2 °F 24.8 °F 68% 29.66 in 10.0 mi ENE 16.1 mph 27.6 mph N/A   Mostly Cloudy
5:15 AM 34.0 °F 24.2 °F 24.8 °F 69% 29.65 in 10.0 mi ENE 15.0 mph 21.9 mph N/A   Mostly Cloudy
5:35 AM 34.0 °F 25.0 °F 24.8 °F 69% 29.65 in 10.0 mi ENE 12.7 mph 24.2 mph N/A   Overcast
5:55 AM 34.2 °F 25.2 °F 25.3 °F 70% 29.69 in 10.0 mi East 12.7 mph 19.6 mph N/A Rain Rain
6:15 AM 33.8 °F 26.4 °F 26.2 °F 74% 29.70 in 5.0 mi East 9.2 mph - N/A Rain Light Rain
6:35 AM 33.3 °F 24.1 °F 27.3 °F 79% 29.67 in 4.0 mi ENE 12.7 mph - 0.05 in Rain Light Rain
6:55 AM 32.9 °F 23.7 °F 27.5 °F 81% 29.66 in 4.0 mi ENE 12.7 mph 19.6 mph 0.11 in Rain Rain
7:15 AM 32.9 °F 24.7 °F 28.2 °F 83% 29.66 in 3.0 mi ENE 10.4 mph - 0.04 in Rain Light Rain
7:35 AM 32.5 °F 22.7 °F 28.4 °F 85% 29.63 in 4.0 mi ENE 13.8 mph 19.6 mph 0.09 in Rain Light Rain
7:55 AM 32.4 °F 23.5 °F 28.4 °F 85% 29.60 in 3.0 mi ENE 11.5 mph 20.7 mph 0.13 in Rain Light Rain
8:15 AM 32.4 °F 22.5 °F 28.4 °F 85% 29.56 in 2.5 mi ENE 13.8 mph 19.6 mph 0.03 in Rain Light Rain
8:35 AM 32.4 °F 23.0 °F 28.4 °F 85% 29.56 in 2.0 mi ENE 12.7 mph 21.9 mph 0.08 in Rain Rain
8:55 AM 32.4 °F 23.5 °F 28.9 °F 87% 29.55 in 2.5 mi East 11.5 mph - 0.12 in Rain Light Rain
9:15 AM 32.5 °F 23.7 °F 29.1 °F 87% 29.52 in 3.0 mi ENE 11.5 mph - 0.02 in Rain Light Rain
9:35 AM 32.9 °F 24.7 °F 29.3 °F 87% 29.51 in 2.5 mi ENE 10.4 mph 16.1 mph 0.03 in Rain Light Rain
9:55 AM 33.1 °F - 29.7 °F 87% 29.59 in 7.0 mi Calm Calm - 0.03 in   Overcast
10:15 AM 33.1 °F 28.7 °F 29.8 °F 88% 29.56 in 2.5 mi East 4.6 mph - 0.04 in Rain Light Rain
10:35 AM 33.1 °F 27.7 °F 29.8 °F 88% 29.54 in 2.0 mi East 5.8 mph - 0.10 in Snow Light Snow
10:55 AM 32.9 °F 28.5 °F 30.0 °F 89% 29.52 in 2.5 mi East 4.6 mph - 0.14 in Snow Light Snow
11:15 AM 33.1 °F 28.7 °F 30.2 °F 89% 29.52 in 1.8 mi East 4.6 mph - 0.07 in Snow Light Snow
11:35 AM 33.1 °F 27.7 °F 30.6 °F 90% 29.50 in 3.0 mi East 5.8 mph - 0.11 in Rain Light Rain
11:55 AM 33.4 °F 26.6 °F 30.7 °F 90% 29.48 in 4.0 mi East 8.1 mph - 0.12 in Rain Light Rain
12:15 PM 33.6 °F 27.5 °F 30.7 °F 89% 29.48 in 3.0 mi East 6.9 mph - N/A Rain Light Rain
12:35 PM 33.8 °F 27.0 °F 31.1 °F 90% 29.46 in 2.5 mi East 8.1 mph - N/A Snow Snow
12:55 PM 34.2 °F 27.5 °F 31.6 °F 90% 29.45 in 2.0 mi East 8.1 mph - N/A Snow Light Snow
1:15 PM 34.7 °F 26.9 °F 32.0 °F 90% 29.43 in 3.0 mi East 10.4 mph 17.3 mph N/A Rain Light Rain
1:35 PM 35.6 °F 27.1 °F 32.2 °F 87% 29.42 in 4.0 mi East 12.7 mph - 0.01 in Rain Rain
1:55 PM 35.8 °F 27.3 °F 32.5 °F 88% 29.41 in 4.0 mi East 12.7 mph - 0.01 in Rain Rain
2:15 PM 36.5 °F 29.2 °F 33.1 °F 87% 29.40 in 4.0 mi East 10.4 mph - N/A   Drizzle
2:35 PM 36.5 °F 30.3 °F 33.3 °F 88% 29.39 in 4.0 mi East 8.1 mph - N/A   Drizzle
2:55 PM 36.7 °F 31.2 °F 33.4 °F 88% 29.39 in 2.0 mi East 6.9 mph - N/A Rain Rain
3:15 PM 36.9 °F 31.4 °F 33.8 °F 89% 29.39 in 2.5 mi East 6.9 mph - N/A   Drizzle
3:35 PM 37.0 °F 33.3 °F 34.0 °F 89% 29.39 in 1.8 mi ENE 4.6 mph - 0.01 in Rain Rain
3:55 PM 37.4 °F 34.9 °F 34.2 °F 88% 29.40 in 2.0 mi ENE 3.5 mph - 0.04 in Rain Rain
4:15 PM 37.6 °F 35.1 °F 34.7 °F 89% 29.40 in 2.5 mi ENE 3.5 mph - 0.03 in Rain Rain
4:35 PM 37.4 °F 33.8 °F 34.7 °F 90% 29.39 in 4.0 mi ENE 4.6 mph - 0.05 in Rain Light Rain
4:55 PM 37.6 °F 33.1 °F 34.7 °F 89% 29.39 in 4.0 mi NE 5.8 mph - 0.06 in Rain Light Rain
5:15 PM 37.4 °F 34.9 °F 34.3 °F 89% 29.40 in 4.0 mi ENE 3.5 mph - N/A Rain Light Rain
5:35 PM 37.4 °F - 34.7 °F 90% 29.41 in 4.0 mi Calm Calm - 0.01 in Rain Light Rain
5:55 PM 36.9 °F 34.3 °F 34.0 °F 89% 29.41 in 2.0 mi NE 3.5 mph - 0.02 in Rain Light Rain
6:15 PM 37.4 °F - 34.7 °F 90% 29.42 in 3.0 mi Calm Calm - N/A   Light Drizzle
6:35 PM 36.9 °F - 34.0 °F 89% 29.42 in 3.0 mi Calm Calm - 0.01 in Rain Light Rain
6:55 PM 36.9 °F - 34.0 °F 89% 29.42 in 1.5 mi Calm Calm - 0.01 in   Light Drizzle
7:15 PM 36.7 °F - 33.8 °F 89% 29.43 in 1.0 mi Calm Calm - 0.01 in Rain Light Rain
7:35 PM 36.5 °F - 33.8 °F 90% 29.44 in 1.0 mi Calm Calm - 0.02 in Rain Light Rain
7:55 PM 36.5 °F - 33.8 °F 90% 29.44 in 0.8 mi Calm Calm - 0.02 in   Drizzle
8:15 PM 36.5 °F - 33.8 °F 90% 29.45 in 0.8 mi Calm Calm - N/A   Drizzle
8:35 PM 36.5 °F - 33.8 °F 90% 29.46 in 0.8 mi Calm Calm - 0.01 in Rain Light Rain
8:55 PM 36.9 °F - 34.2 °F 90% 29.46 in 1.0 mi Calm Calm - 0.02 in Rain Light Rain
9:15 PM 38.1 °F 32.9 °F 35.4 °F 90% 29.46 in 1.8 mi SW 6.9 mph - N/A   Drizzle
9:35 PM 39.7 °F 33.7 °F 37.0 °F 90% 29.46 in 4.0 mi SW 9.2 mph - N/A   Light Drizzle
9:55 PM 39.9 °F 32.9 °F 37.2 °F 90% 29.46 in 5.0 mi SW 11.5 mph 17.3 mph N/A   Overcast
10:15 PM 39.7 °F 33.2 °F 37.0 °F 90% 29.46 in 7.0 mi WSW 10.4 mph - N/A   Overcast
10:35 PM 39.4 °F 33.2 °F 36.7 °F 90% 29.46 in 7.0 mi SW 9.2 mph - N/A   Overcast
10:55 PM 39.7 °F 32.7 °F 37.0 °F 90% 29.46 in 5.0 mi SW 11.5 mph - N/A   Overcast
11:15 PM 40.1 °F 33.6 °F 37.4 °F 90% 29.46 in 7.0 mi SW 10.4 mph - N/A   Overcast
11:35 PM 40.1 °F 33.6 °F 37.2 °F 89% 29.47 in 7.0 mi SW 10.4 mph - N/A   Overcast
11:55 PM 40.1 °F 33.6 °F 37.4 °F 90% 29.47 in 7.0 mi SW 10.4 mph - N/A   Overcast